Regional Weather Roundup
Issued by NWS Kansas City/Pleasant Hill, MO

Home | Current Version | Previous Version | Graphics & Text | Print | Product List | Glossary Off
Versions: 1 2 3 4 5 6 7 8 9 10 11 12 13 14 15 16 17 18 19 20 21 22 23 24 25 26 27

000
ASUS43 KEAX 220910
RWREAX

WEATHER ROUNDUP FOR EASTERN KANSAS AND NORTHWEST MISSOURI
NATIONAL WEATHER SERVICE KANSAS CITY/PLEASANT HILL MO
300 AM CST SUN JAN 22 2017

KSZ040-057-103>105-MOZ028-029-037-043-221000-
...KANSAS CITY METROPOLITAN AREA...

CITY           SKY/WX    TMP DP  RH WIND       PRES   REMARKS
K.C. INTL      CLOUDY    46  41  82 NE8       29.54R
K.C. DOWNTOWN  CLOUDY    47  45  93 E9        29.54R
LEES SUMMIT    RAIN      46  45  96 NE12      29.54R FOG
OLATHE - IXD   CLOUDY    46  45  96 NE7       29.53R
OLATHE - OJC   CLOUDY    45  45 100 NE7       29.53R
LAWRENCE       CLOUDY    47  44  90 VRB3      29.53R

$$

MOZ001>008-011>017-020>025-030>033-038>040-044>046-053-054-221000-
...NORTHERN AND CENTRAL MISSOURI...

CITY           SKY/WX    TMP DP  RH WIND       PRES   REMARKS
ST. JOSEPH     CLOUDY    42  41  96 N10       29.57R
MOSBY            N/A     45  45 100 CALM      29.56R
WARRENSBURG    CLOUDY    45  43  93 N9        29.53S
WHITEMAN AFB   MOCLDY    46  46 100 N10       29.51S
CLINTON        LGT RAIN  48  45  87 NE5       29.51R
SEDALIA        CLOUDY    48  44  86 N12       29.51F
WARSAW         NOT AVBL
CHILLICOTHE      N/A     43  41  93 CALM      29.58R
KIRKSVILLE     CLOUDY    40  40 100 E6        29.58R FOG

$$

MOZ041-047>049-056>058-063>065-088>090-097-221000-
...EASTERN AND SOUTHERN MISSOURI...

CITY           SKY/WX    TMP DP  RH WIND       PRES   REMARKS
ST. LOUIS INTL CLOUDY    49  41  74 NW7       29.51R
SPIRIT OF STL  CLOUDY    49  42  77 N6        29.50S
COLUMBIA       LGT RAIN  48  46  93 NE9       29.50F
JEFFERSON CITY CLOUDY    50  45  83 N9        29.49R
ROLLA          MOCLDY    48  46  93 N8        29.46S
OSAGE BEACH    CLOUDY    49  47  93 NE9       29.48S
SPRINGFIELD    CLOUDY    50  48  93 NE8       29.43F
BRANSON        CLOUDY    50  50 100 E3        29.42S
JOPLIN         LGT RAIN  50  49  96 N9        29.44R
WEST PLAINS    CLOUDY    55  54  96 E5        29.45S

$$

IAZ060-094-KSZ022-034>040-054-083-096-NEZ052-066-093-221000-
...KANSAS...SOUTHEAST NEBRASKA AND IOWA...

CITY           SKY/WX    TMP DP  RH WIND       PRES   REMARKS
TOPEKA         CLOUDY    45  42  89 N7        29.54R
MANHATTAN      CLOUDY    44  39  82 N3        29.57R
EMPORIA        CLOUDY    45  43  93 N6        29.50R
CHANUTE        LGT RAIN  49  46  90 NE15G21   29.46R
WICHITA        LGT RAIN  46  44  93 N10       29.49R
OMAHA          PTCLDY    30  26  85 N7        29.64R WCI  23
LINCOLN        CLEAR     31  29  92 N3        29.65R
FALLS CITY     CLOUDY    35  34  96 NW6       29.58R WCI  30
LAMONI         FOG       30  30 100 SE3       29.57R VSB 1/4
DES MOINES     FOG       33  33 100 N7        29.59S VSB 1/4 WCI  27

$$





USA.gov is the U.S. government's official web portal to all federal, state and local government web resources and services.